Location: Augustenthal
(51.7167°N, 10.2833°E)
Time: 08:38:55
(UTC+00:00)

Cosmos 494 Rocket - Pass Details

Date: 18 May 2021
Orbit: 743 x 770 km, 74.1° (Epoch: 20 June)

Event Time Altitude Azimuth Distance (km) Brightness Sun altitude
Rises 21:50:33 0° 334° (NNW) 3,225 9.0 -16.2°
Reaches altitude 10° 21:52:56 10° 333° (NNW) 2,292 7.8 -16.3°
Maximum altitude 21:58:07 79° 247° (WSW) 771 3.9 -16.6°
Enters shadow 22:00:48 29° 165° (SSE) 1,356 4.7 -16.7°
